Gloucester, Virginia, United States (23061)
Lat: 37.41N, Lon: 76.53W
Wx Zone: VAZ084
Local Info
Past Weather Observations for Today

NOTE: This archive is for the closest National Weather Service station to Gloucester. Information may differ from the station used for current weather conditions.

Click here for Long-term Archive

Time Weather Temperature Dewpoint Humidity Pressure Winds Precip Visibility
12:55
Clear
73°F / 23°C 45°F / 7°C 36% 29.83 in
(1010 mb)
S 3.5 mph
(S 6 kph)
- 10SM
12:35
Clear
73°F / 23°C 46°F / 8°C 38% 29.83 in
(1010 mb)
SW 5.8 mph
(SW 9 kph)
- 10SM
12:15
Clear
73°F / 23°C 46°F / 8°C 38% 29.86 in
(1011 mb)
SW 3.5 mph
(SW 6 kph)
- 10SM
11:55
Clear
73°F / 23°C 46°F / 8°C 38% 29.86 in
(1011 mb)
W 4.6 mph
(W 7 kph)
- 10SM
11:35
Clear
73°F / 23°C 48°F / 9°C 41% 29.86 in
(1011 mb)
W 3.5 mph
(W 6 kph)
- 10SM
11:15
Clear
72°F / 22°C 46°F / 8°C 41% 29.89 in
(1012 mb)
Calm - 10SM
10:55
Clear
70°F / 21°C 50°F / 10°C 50% 29.89 in
(1012 mb)
Calm - 10SM
10:35
Clear
70°F / 21°C 50°F / 10°C 50% 29.89 in
(1012 mb)
SSW 4.6 mph
(SSW 7 kph)
- 10SM
10:15
Obscured
68°F / 20°C 52°F / 11°C 56% 29.89 in
(1012 mb)
Calm - 1 1/2SM
09:55
Clear
66°F / 19°C 52°F / 11°C 60% 29.89 in
(1012 mb)
SW 3.5 mph
(SW 6 kph)
- 10SM
09:35
Clear
66°F / 19°C 52°F / 11°C 60% 29.92 in
(1013 mb)
S 3.5 mph
(S 6 kph)
- 10SM
09:15
Clear
63°F / 17°C 52°F / 11°C 68% 29.92 in
(1013 mb)
S 3.5 mph
(S 6 kph)
- 10SM
08:55
Clear
63°F / 17°C 52°F / 11°C 68% 29.92 in
(1013 mb)
SSE 4.6 mph
(SSE 7 kph)
- 10SM
08:35
Mostly Cloudy
63°F / 17°C 52°F / 11°C 68% 29.92 in
(1013 mb)
S 3.5 mph
(S 6 kph)
- 10SM
08:15
Mostly Cloudy
63°F / 17°C 52°F / 11°C 68% 29.92 in
(1013 mb)
SSE 4.6 mph
(SSE 7 kph)
- 10SM
07:55
Clear
61°F / 16°C 54°F / 12°C 77% 29.92 in
(1013 mb)
SSE 3.5 mph
(SSE 6 kph)
- 10SM
07:35
Partly Cloudy
61°F / 16°C 54°F / 12°C 77% 29.92 in
(1013 mb)
SSE 3.5 mph
(SSE 6 kph)
- 10SM
07:15
Partly Cloudy
59°F / 15°C 54°F / 12°C 82% 29.92 in
(1013 mb)
S 4.6 mph
(S 7 kph)
- 10SM
06:55
Mostly Cloudy
59°F / 15°C 52°F / 11°C 77% 29.92 in
(1013 mb)
SSE 4.6 mph
(SSE 7 kph)
- 1 1/2SM
06:35
Overcast
59°F / 15°C 52°F / 11°C 77% 29.92 in
(1013 mb)
S 3.5 mph
(S 6 kph)
- 1 3/4SM
06:15
Mostly Cloudy
57°F / 14°C 52°F / 11°C 82% 29.92 in
(1013 mb)
Calm - 7SM
05:55
Partly Cloudy
59°F / 15°C 54°F / 12°C 82% 29.89 in
(1012 mb)
SW 3.5 mph
(SW 6 kph)
- 5SM
05:35
Partly Cloudy
59°F / 15°C 54°F / 12°C 82% 29.89 in
(1012 mb)
Calm - 10SM
05:15
Partly Cloudy
59°F / 15°C 54°F / 12°C 82% 29.89 in
(1012 mb)
Calm - 10SM
04:55
Partly Cloudy
57°F / 14°C 54°F / 12°C 88% 29.89 in
(1012 mb)
Calm - 10SM
04:35
Clear
59°F / 15°C 52°F / 11°C 77% 29.89 in
(1012 mb)
Calm - 10SM
04:15
Clear
59°F / 15°C 54°F / 12°C 82% 29.92 in
(1013 mb)
S 3.5 mph
(S 6 kph)
- 10SM
03:55
Clear
59°F / 15°C 54°F / 12°C 82% 29.92 in
(1013 mb)
S 3.5 mph
(S 6 kph)
- 10SM
03:35
Clear
59°F / 15°C 54°F / 12°C 82% 29.92 in
(1013 mb)
SSE 3.5 mph
(SSE 6 kph)
- 10SM
03:15
Partly Cloudy
59°F / 15°C 54°F / 12°C 82% 29.92 in
(1013 mb)
SSE 4.6 mph
(SSE 7 kph)
- 10SM
02:55
Mostly Cloudy
61°F / 16°C 54°F / 12°C 77% 29.92 in
(1013 mb)
SSE 5.8 mph
(SSE 9 kph)
- 10SM
02:35
Overcast
59°F / 15°C 54°F / 12°C 82% 29.92 in
(1013 mb)
SSE 4.6 mph
(SSE 7 kph)
- 10SM
02:15
Overcast
59°F / 15°C 54°F / 12°C 82% 29.95 in
(1014 mb)
SE 4.6 mph
(SE 7 kph)
- 10SM
01:55
Overcast
59°F / 15°C 52°F / 11°C 77% 29.95 in
(1014 mb)
Calm - 10SM
01:35
Overcast
59°F / 15°C 52°F / 11°C 77% 29.95 in
(1014 mb)
SE 3.5 mph
(SE 6 kph)
- 10SM
01:15
Overcast
59°F / 15°C 50°F / 10°C 72% 29.95 in
(1014 mb)
SSE 3.5 mph
(SSE 6 kph)
- 10SM
00:55
Overcast
61°F / 16°C 50°F / 10°C 68% 29.95 in
(1014 mb)
Calm - 10SM
00:35
Mostly Cloudy
61°F / 16°C 50°F / 10°C 68% 29.95 in
(1014 mb)
Calm - 10SM
00:15
Clear
59°F / 15°C 48°F / 9°C 68% 29.98 in
(1015 mb)
Calm - 10SM
Time Weather Temperature Dewpoint Humidity Pressure Winds Precip Visibility


Weather for websites

WeatherForYou.com, LLC is not responsible for any damages or problems caused by this service. Current weather conditions are obtained from the closest station including government and personal stations which may have varying degrees of accuracy. Weather forecasts are derived from the NOAA NDFD. Like all things, this site belongs to Jesus Christ... He just trusts me to maintain it. If you have any questions or comments email webmaster@weatherforyou.com

Copyright © 2014, WeatherForYou.com LLC. All rights reserved.